| time (UTC) | temp F | wind direction | speed knots | gust knots | rain 1hr in | rain 24hr in | rain mn in | humidity % | barometer mb |
| 20260503024233 | 41 | 253 | 0.0 | 0.0 | 0.00 | 0.00 | 0.00 | 81 | 1009.8 |
| 20260503023618 | 41 | 241 | 0.0 | 0.0 | 0.00 | 0.00 | 0.00 | 80 | 1009.8 |
| 20260503023036 | 41 | 246 | 0.0 | 0.0 | 0.00 | 0.00 | 0.00 | 80 | 1009.8 |
| 20260503022451 | 41 | 254 | 0.0 | 0.0 | 0.00 | 0.00 | 0.00 | 80 | 1009.8 |
| 20260503021851 | 42 | 248 | 0.0 | 0.0 | 0.00 | 0.00 | 0.00 | 78 | 1009.8 |
| 20260503021241 | 42 | 250 | 0.0 | 0.0 | 0.00 | 0.00 | 0.00 | 78 | 1009.4 |
| 20260503020644 | 42 | 265 | 0.0 | 0.0 | 0.00 | 0.00 | 0.00 | 78 | 1009.4 |
| 20260503020048 | 42 | 255 | 0.0 | 0.0 | 0.00 | 0.00 | 0.00 | 77 | 1009.4 |
| 20260503014817 | 43 | 253 | 0.0 | 0.0 | 0.00 | 0.00 | 0.00 | 76 | 1009.1 |
| 20260503014252 | 43 | 255 | 0.0 | 0.0 | 0.00 | 0.00 | 0.00 | 76 | 1009.1 |
| 20260503013626 | 43 | 249 | 0.0 | 0.0 | 0.00 | 0.00 | 0.00 | 76 | 1009.1 |
| 20260503013014 | 43 | 252 | 0.0 | 0.0 | 0.00 | 0.00 | 0.00 | 75 | 1009.1 |
| 20260503011811 | 44 | 263 | 0.0 | 0.0 | 0.00 | 0.00 | 0.00 | 73 | 1009.1 |
| 20260503011231 | 44 | 258 | 0.0 | 0.0 | 0.00 | 0.00 | 0.00 | 73 | 1009.1 |
| 20260503010623 | 44 | 247 | 0.0 | 0.0 | 0.00 | 0.00 | 0.00 | 72 | 1008.8 |
| 20260503010028 | 45 | 257 | 0.0 | 0.0 | 0.00 | 0.00 | 0.00 | 72 | 1008.8 |
| 20260503005413 | 45 | 262 | 0.0 | 0.0 | 0.00 | 0.00 | 0.00 | 71 | 1008.8 |
| 20260503004843 | 46 | 292 | 0.0 | 0.0 | 0.00 | 0.00 | 0.00 | 68 | 1008.8 |
| 20260503004211 | 47 | 303 | 0.0 | 0.0 | 0.00 | 0.00 | 0.00 | 66 | 1008.8 |
| 20260503003641 | 48 | 263 | 0.0 | 0.0 | 0.00 | 0.00 | 0.00 | 65 | 1008.4 |
| 20260503003018 | 49 | 263 | 0.0 | 0.0 | 0.00 | 0.00 | 0.00 | 61 | 1008.4 |
| 20260503001815 | 50 | 310 | 0.0 | 0.0 | 0.00 | 0.00 | 0.00 | 58 | 1008.1 |
| 20260503001232 | 50 | 261 | 0.0 | 0.0 | 0.00 | 0.00 | 0.00 | 56 | 1008.1 |
| 20260503000048 | 52 | 175 | 2.6 | 3.5 | 0.00 | 0.00 | 0.00 | 47 | 1008.1 |
| 20260502235410 | 53 | 229 | 3.5 | 3.5 | 0.00 | 0.00 | 0.00 | 47 | 1008.1 |
| 20260502234841 | 53 | 243 | 2.6 | 2.6 | 0.00 | 0.00 | 0.00 | 46 | 1008.1 |
| 20260502234245 | 53 | 237 | 3.5 | 5.2 | 0.00 | 0.00 | 0.00 | 47 | 1008.1 |
| 20260502233641 | 54 | 290 | 3.5 | 3.5 | 0.00 | 0.00 | 0.00 | 47 | 1007.7 |
| 20260502232429 | 54 | 218 | 5.2 | 6.1 | 0.00 | 0.00 | 0.00 | 45 | 1007.7 |
| 20260502231840 | 54 | 123 | 3.5 | 5.2 | 0.00 | 0.00 | 0.00 | 45 | 1007.7 |
| 20260502231212 | 54 | 201 | 3.5 | 5.2 | 0.00 | 0.00 | 0.00 | 45 | 1007.4 |
| 20260502230630 | 55 | 241 | 1.7 | 1.7 | 0.00 | 0.00 | 0.00 | 45 | 1007.4 |
| 20260502230040 | 55 | 4 | 6.1 | 9.6 | 0.00 | 0.00 | 0.00 | 43 | 1007.4 |
| 20260502225434 | 56 | 248 | 3.5 | 5.2 | 0.00 | 0.00 | 0.00 | 44 | 1007.4 |
| 20260502224832 | 56 | 227 | 1.7 | 2.6 | 0.00 | 0.00 | 0.00 | 45 | 1007.4 |
| 20260502224227 | 55 | 220 | 4.3 | 5.2 | 0.00 | 0.00 | 0.00 | 42 | 1007.4 |
| 20260502223035 | 55 | 183 | 4.3 | 5.2 | 0.00 | 0.00 | 0.00 | 44 | 1007.1 |
| 20260502222421 | 55 | 205 | 0.9 | 1.7 | 0.00 | 0.00 | 0.00 | 44 | 1007.4 |
| 20260502221839 | 56 | 231 | 1.7 | 1.7 | 0.00 | 0.00 | 0.00 | 45 | 1007.4 |
| 20260502221254 | 56 | 211 | 4.3 | 6.1 | 0.00 | 0.00 | 0.00 | 44 | 1007.1 |
| 20260502220621 | 54 | 303 | 2.6 | 2.6 | 0.00 | 0.00 | 0.00 | 47 | 1007.1 |
| 20260502220030 | 55 | 268 | 2.6 | 2.6 | 0.00 | 0.00 | 0.00 | 47 | 1007.1 |
| 20260502215411 | 56 | 256 | 7.0 | 8.7 | 0.00 | 0.00 | 0.00 | 45 | 1007.1 |
| 20260502214823 | 56 | 215 | 4.3 | 7.0 | 0.00 | 0.00 | 0.00 | 46 | 1007.1 |
| 20260502213651 | 55 | 309 | 4.3 | 6.1 | 0.00 | 0.00 | 0.00 | 47 | 1006.7 |
| 20260502213041 | 57 | 219 | 3.5 | 3.5 | 0.00 | 0.00 | 0.00 | 44 | 1007.1 |
| 20260502212448 | 57 | 264 | 2.6 | 3.5 | 0.00 | 0.00 | 0.00 | 50 | 1007.1 |
| 20260502211814 | 58 | 283 | 4.3 | 5.2 | 0.00 | 0.00 | 0.00 | 44 | 1006.7 |
| 20260502211238 | 59 | 246 | 2.6 | 5.2 | 0.00 | 0.00 | 0.00 | 46 | 1006.7 |
| 20260502210627 | 58 | 281 | 0.9 | 1.7 | 0.00 | 0.00 | 0.00 | 41 | 1006.7 |
| 20260502210034 | 57 | 301 | 4.3 | 6.1 | 0.00 | 0.00 | 0.00 | 43 | 1007.1 |
| 20260502205414 | 58 | 270 | 4.3 | 5.2 | 0.00 | 0.00 | 0.00 | 45 | 1007.1 |
| 20260502204235 | 56 | 220 | 5.2 | 6.1 | 0.00 | 0.00 | 0.00 | 45 | 1007.1 |
| 20260502203612 | 59 | 256 | 3.5 | 3.5 | 0.00 | 0.00 | 0.00 | 46 | 1007.1 |
| 20260502203052 | 56 | 266 | 7.0 | 7.8 | 0.00 | 0.00 | 0.00 | 46 | 1007.1 |
| 20260502202443 | 54 | 215 | 5.2 | 7.0 | 0.00 | 0.00 | 0.00 | 47 | 1007.1 |
| 20260502201845 | 55 | 276 | 7.0 | 7.8 | 0.00 | 0.00 | 0.00 | 47 | 1007.1 |
| 20260502201211 | 57 | 273 | 3.5 | 5.2 | 0.00 | 0.00 | 0.00 | 48 | 1007.1 |
| 20260502200650 | 55 | 259 | 3.5 | 3.5 | 0.00 | 0.00 | 0.00 | 48 | 1007.1 |
| 20260502200039 | 55 | 273 | 4.3 | 6.1 | 0.00 | 0.00 | 0.00 | 47 | 1007.1 |
| 20260502195414 | 55 | 271 | 3.5 | 3.5 | 0.00 | 0.00 | 0.00 | 50 | 1007.1 |
| 20260502194838 | 57 | 294 | 4.3 | 5.2 | 0.00 | 0.00 | 0.00 | 48 | 1007.1 |
| 20260502194248 | 55 | 284 | 4.3 | 6.1 | 0.00 | 0.00 | 0.00 | 51 | 1007.4 |
| 20260502193634 | 54 | 258 | 5.2 | 6.1 | 0.00 | 0.00 | 0.00 | 48 | 1007.4 |
| 20260502193038 | 54 | 209 | 4.3 | 5.2 | 0.00 | 0.00 | 0.00 | 48 | 1007.7 |
| 20260502192426 | 57 | 243 | 3.5 | 3.5 | 0.00 | 0.00 | 0.00 | 47 | 1007.4 |
| 20260502191852 | 56 | 297 | 3.5 | 5.2 | 0.00 | 0.00 | 0.00 | 51 | 1007.4 |
| 20260502190615 | 55 | 276 | 4.3 | 6.1 | 0.00 | 0.00 | 0.00 | 50 | 1007.7 |
| 20260502190018 | 55 | 254 | 3.5 | 5.2 | 0.00 | 0.00 | 0.00 | 47 | 1007.7 |
| 20260502185437 | 54 | 266 | 7.0 | 8.7 | 0.00 | 0.00 | 0.00 | 48 | 1007.7 |
| 20260502184255 | 56 | 283 | 3.5 | 5.2 | 0.00 | 0.00 | 0.00 | 52 | 1007.7 |
| 20260502183654 | 55 | 226 | 1.7 | 1.7 | 0.00 | 0.00 | 0.00 | 54 | 1007.7 |
| 20260502183016 | 55 | 225 | 6.1 | 7.8 | 0.00 | 0.00 | 0.00 | 50 | 1007.7 |
| 20260502182440 | 55 | 203 | 3.5 | 5.2 | 0.00 | 0.00 | 0.00 | 48 | 1007.7 |
| 20260502181833 | 56 | 235 | 2.6 | 3.5 | 0.00 | 0.00 | 0.00 | 48 | 1007.7 |
| 20260502181254 | 55 | 239 | 2.6 | 3.5 | 0.00 | 0.00 | 0.00 | 50 | 1008.1 |
| 20260502180621 | 55 | 246 | 2.6 | 5.2 | 0.00 | 0.00 | 0.00 | 54 | 1008.1 |
| 20260502164244 | 55 | 290 | 3.5 | 3.5 | 0.00 | 0.00 | 0.00 | 53 | 1008.8 |
| 20260502163631 | 53 | 216 | 6.1 | 7.0 | 0.00 | 0.00 | 0.00 | 51 | 1008.8 |
| 20260502163054 | 54 | 228 | 2.6 | 2.6 | 0.00 | 0.00 | 0.00 | 52 | 1008.8 |
| 20260502162442 | 54 | 274 | 4.3 | 6.1 | 0.00 | 0.00 | 0.00 | 55 | 1008.8 |
| 20260502161816 | 53 | 267 | 2.6 | 3.5 | 0.00 | 0.00 | 0.00 | 54 | 1008.8 |
| 20260502161221 | 55 | 222 | 5.2 | 7.0 | 0.00 | 0.00 | 0.00 | 48 | 1008.8 |
| 20260502160623 | 55 | 260 | 3.5 | 5.2 | 0.00 | 0.00 | 0.00 | 51 | 1008.8 |
| 20260502151833 | 52 | 222 | 3.5 | 3.5 | 0.00 | 0.00 | 0.00 | 57 | 1009.1 |
| 20260502151241 | 53 | 208 | 2.6 | 3.5 | 0.00 | 0.00 | 0.00 | 54 | 1008.8 |
| 20260502150650 | 52 | 239 | 5.2 | 7.0 | 0.00 | 0.00 | 0.00 | 56 | 1008.8 |
| 20260502130631 | 42 | 274 | 0.0 | 0.0 | 0.00 | 0.00 | 0.00 | 98 | 1009.4 |
| 20260502123635 | 40 | 283 | 0.0 | 0.0 | 0.00 | 0.00 | 0.00 | 99 | 1009.1 |
| 20260502122440 | 39 | 264 | 0.0 | 0.9 | 0.00 | 0.00 | 0.00 | 99 | 1009.4 |
| 20260502121222 | 40 | 242 | 0.0 | 0.0 | 0.00 | 0.00 | 0.00 | 99 | 1009.1 |
| 20260502120644 | 39 | 240 | 0.0 | 0.0 | 0.00 | 0.00 | 0.00 | 99 | 1009.1 |
| 20260502115451 | 39 | 292 | 0.0 | 0.0 | 0.00 | 0.00 | 0.00 | 99 | 1009.1 |
| 20260502114813 | 38 | 269 | 0.0 | 0.0 | 0.00 | 0.00 | 0.00 | 99 | 1009.1 |
| 20260502114232 | 38 | 247 | 0.0 | 0.0 | 0.00 | 0.00 | 0.00 | 99 | 1009.1 |
| 20260502113611 | 38 | 261 | 0.0 | 0.0 | 0.00 | 0.00 | 0.00 | 99 | 1009.1 |
| 20260502113039 | 38 | 261 | 0.0 | 0.0 | 0.00 | 0.00 | 0.00 | 99 | 1009.1 |
| 20260502112437 | 38 | 273 | 0.0 | 0.0 | 0.00 | 0.00 | 0.00 | 99 | 1009.1 |
| 20260502111828 | 38 | 253 | 0.0 | 0.0 | 0.00 | 0.00 | 0.00 | 99 | 1008.8 |
| 20260502111226 | 38 | 259 | 0.0 | 0.0 | 0.00 | 0.00 | 0.00 | 99 | 1008.8 |
| 20260502110017 | 38 | 273 | 0.0 | 0.0 | 0.00 | 0.00 | 0.00 | 99 | 1008.8 |
| 20260502105418 | 37 | 289 | 0.0 | 0.0 | 0.00 | 0.00 | 0.00 | 99 | 1008.8 |
| 20260502104829 | 37 | 268 | 0.0 | 0.0 | 0.00 | 0.00 | 0.00 | 99 | 1008.8 |
| 20260502104217 | 37 | 263 | 0.0 | 0.0 | 0.00 | 0.00 | 0.00 | 99 | 1008.8 |
| 20260502103635 | 37 | 253 | 0.0 | 0.0 | 0.00 | 0.00 | 0.00 | 99 | 1008.4 |
| 20260502103043 | 37 | 257 | 0.0 | 0.0 | 0.00 | 0.00 | 0.00 | 99 | 1008.8 |
| 20260502102419 | 37 | 263 | 0.0 | 0.0 | 0.00 | 0.00 | 0.00 | 99 | 1009.1 |
| 20260502101846 | 37 | 275 | 0.0 | 0.0 | 0.00 | 0.00 | 0.00 | 99 | 1009.1 |
| 20260502100630 | 37 | 283 | 0.0 | 0.0 | 0.00 | 0.00 | 0.00 | 99 | 1009.1 |
| 20260502091252 | 37 | 279 | 0.0 | 0.0 | 0.00 | 0.00 | 0.00 | 99 | 1009.1 |
| 20260502090624 | 37 | 275 | 0.0 | 0.0 | 0.00 | 0.00 | 0.00 | 99 | 1009.1 |
| 20260502071224 | 39 | 273 | 0.0 | 0.0 | 0.00 | 0.00 | 0.00 | 99 | 1008.8 |
| 20260502070652 | 39 | 200 | 0.0 | 0.0 | 0.00 | 0.00 | 0.00 | 99 | 1008.8 |
| 20260502070035 | 38 | 267 | 0.0 | 0.0 | 0.00 | 0.00 | 0.00 | 99 | 1008.8 |
| 20260502063651 | 38 | 280 | 0.0 | 0.0 | 0.00 | 0.00 | 0.00 | 99 | 1008.8 |
| 20260502063042 | 38 | 275 | 0.0 | 0.0 | 0.00 | 0.00 | 0.00 | 99 | 1009.1 |
| 20260502061814 | 37 | 282 | 0.0 | 0.0 | 0.00 | 0.00 | 0.00 | 99 | 1009.1 |
| 20260502061249 | 37 | 278 | 0.0 | 0.0 | 0.00 | 0.00 | 0.00 | 99 | 1009.1 |
| 20260502060622 | 37 | 341 | 0.0 | 0.0 | 0.00 | 0.00 | 0.00 | 99 | 1009.1 |
| 20260502060047 | 37 | 272 | 0.0 | 0.0 | 0.00 | 0.00 | 0.00 | 98 | 1009.1 |
| 20260502055448 | 37 | 277 | 0.0 | 0.0 | 0.00 | 0.00 | 0.00 | 98 | 1009.1 |
| 20260502054820 | 37 | 274 | 0.0 | 0.0 | 0.00 | 0.00 | 0.00 | 98 | 1009.1 |
| 20260502054251 | 37 | 274 | 0.0 | 0.0 | 0.00 | 0.00 | 0.00 | 98 | 1009.1 |
| 20260502053021 | 37 | 268 | 0.0 | 0.0 | 0.00 | 0.00 | 0.00 | 98 | 1009.4 |
| 20260502052415 | 37 | 267 | 0.0 | 0.0 | 0.00 | 0.00 | 0.00 | 98 | 1009.4 |
| 20260502051826 | 38 | 341 | 0.0 | 0.0 | 0.00 | 0.00 | 0.00 | 98 | 1009.4 |
| 20260502051220 | 37 | 259 | 0.0 | 0.0 | 0.00 | 0.00 | 0.00 | 98 | 1009.4 |
| 20260502050628 | 37 | 272 | 0.0 | 0.0 | 0.00 | 0.00 | 0.00 | 97 | 1009.4 |
| 20260502050039 | 38 | 269 | 0.0 | 0.0 | 0.00 | 0.00 | 0.00 | 97 | 1009.4 |
| 20260502045433 | 38 | 267 | 0.0 | 0.0 | 0.00 | 0.00 | 0.00 | 97 | 1009.4 |
| 20260502044838 | 38 | 341 | 0.0 | 0.0 | 0.00 | 0.00 | 0.00 | 97 | 1009.1 |
| 20260502043629 | 38 | 274 | 0.0 | 0.0 | 0.00 | 0.00 | 0.00 | 97 | 1009.4 |
| 20260502043043 | 38 | 270 | 0.0 | 0.0 | 0.00 | 0.00 | 0.00 | 97 | 1009.4 |
| 20260502042435 | 39 | 268 | 0.0 | 0.0 | 0.00 | 0.00 | 0.00 | 96 | 1009.4 |
| 20260502041810 | 39 | 272 | 0.0 | 0.0 | 0.00 | 0.00 | 0.00 | 96 | 1009.4 |
| 20260502041217 | 39 | 270 | 0.0 | 0.0 | 0.00 | 0.00 | 0.00 | 96 | 1009.4 |
| 20260502040649 | 40 | 264 | 0.0 | 0.0 | 0.00 | 0.00 | 0.00 | 96 | 1009.4 |
| 20260502040019 | 40 | 258 | 0.0 | 0.0 | 0.00 | 0.00 | 0.00 | 96 | 1009.4 |
| 20260502035442 | 40 | 266 | 0.0 | 0.0 | 0.00 | 0.00 | 0.00 | 95 | 1009.4 |
| 20260502034810 | 40 | 270 | 0.0 | 0.0 | 0.00 | 0.00 | 0.00 | 95 | 1009.4 |
| 20260502034246 | 40 | 341 | 0.0 | 0.0 | 0.00 | 0.00 | 0.00 | 95 | 1009.1 |
| 20260502033649 | 40 | 269 | 0.0 | 0.0 | 0.00 | 0.00 | 0.00 | 94 | 1009.1 |
| 20260502033012 | 41 | 256 | 0.0 | 0.0 | 0.00 | 0.00 | 0.00 | 94 | 1009.1 |
| 20260502032426 | 41 | 334 | 0.0 | 0.0 | 0.00 | 0.00 | 0.00 | 93 | 1009.1 |
| 20260502031841 | 41 | 263 | 0.0 | 0.0 | 0.00 | 0.00 | 0.00 | 93 | 1009.4 |
| 20260502031213 | 42 | 275 | 0.0 | 0.0 | 0.00 | 0.00 | 0.00 | 93 | 1009.1 |
| 20260502030616 | 42 | 261 | 0.0 | 0.0 | 0.00 | 0.00 | 0.00 | 92 | 1009.1 |
| 20260502030046 | 42 | 268 | 0.0 | 0.0 | 0.00 | 0.00 | 0.00 | 92 | 1009.1 |
| 20260502025414 | 42 | 264 | 0.0 | 0.0 | 0.00 | 0.00 | 0.00 | 92 | 1009.4 |
| 20260502024827 | 43 | 261 | 0.0 | 0.0 | 0.00 | 0.00 | 0.00 | 91 | 1009.4 |